Year,Month,Day,Hour,Minute,Value (Times are PST for temperature in C)
2012,08,15,07,11,14.60
2012,08,15,07,12,14.60
2012,08,15,07,13,14.60
2012,08,15,07,14,14.60
2012,08,15,07,15,14.60
2012,08,15,07,16,14.70
2012,08,15,07,17,14.70
2012,08,15,07,18,14.70
2012,08,15,07,19,14.80
2012,08,15,07,20,14.80
2012,08,15,07,21,14.80
2012,08,15,07,22,14.90
2012,08,15,07,23,14.90
2012,08,15,07,24,15.00
2012,08,15,07,25,15.00
2012,08,15,07,26,15.10
2012,08,15,07,27,15.10
2012,08,15,07,28,15.20
2012,08,15,07,29,15.20
2012,08,15,07,30,15.30
2012,08,15,07,31,15.30
2012,08,15,07,32,15.40
2012,08,15,07,33,15.40
2012,08,15,07,34,15.40
2012,08,15,07,35,15.50
2012,08,15,07,36,15.60
2012,08,15,07,37,15.60
2012,08,15,07,38,15.70
2012,08,15,07,39,15.70
2012,08,15,07,40,15.80
2012,08,15,07,41,15.90
2012,08,15,07,42,15.90
2012,08,15,07,43,16.00
2012,08,15,07,44,16.10
2012,08,15,07,45,16.20
2012,08,15,07,46,16.20
2012,08,15,07,47,16.20
2012,08,15,07,48,16.30
2012,08,15,07,49,16.30
2012,08,15,07,50,16.40
2012,08,15,07,51,16.40
2012,08,15,07,52,16.50
2012,08,15,07,53,16.60
2012,08,15,07,54,16.70
2012,08,15,07,55,16.70
2012,08,15,07,56,16.80
2012,08,15,07,57,16.90
2012,08,15,07,58,17.00
2012,08,15,07,59,17.10
2012,08,15,08,00,17.20
2012,08,15,08,01,17.30
2012,08,15,08,02,17.30
2012,08,15,08,03,17.40
2012,08,15,08,04,17.40
2012,08,15,08,05,17.50
2012,08,15,08,06,17.60
2012,08,15,08,07,17.70
2012,08,15,08,08,17.70
2012,08,15,08,09,17.80
2012,08,15,08,10,17.80
2012,08,15,08,11,17.90
2012,08,15,08,12,18.00
2012,08,15,08,13,18.10
2012,08,15,08,14,18.20
2012,08,15,08,15,18.30
2012,08,15,08,16,18.30
2012,08,15,08,17,18.40
2012,08,15,08,18,18.50
2012,08,15,08,19,18.60
2012,08,15,08,20,18.70
2012,08,15,08,21,18.80
2012,08,15,08,22,18.80
2012,08,15,08,23,18.90
2012,08,15,08,24,19.00
2012,08,15,08,25,19.00
2012,08,15,08,26,19.10
2012,08,15,08,27,19.20
2012,08,15,08,28,19.30
2012,08,15,08,29,19.40
2012,08,15,08,30,19.40
2012,08,15,08,31,19.50
2012,08,15,08,32,19.60
2012,08,15,08,33,19.60
2012,08,15,08,34,19.70
2012,08,15,08,35,19.80
2012,08,15,08,36,19.90
2012,08,15,08,37,20.00
2012,08,15,08,38,20.10
2012,08,15,08,39,20.10
2012,08,15,08,40,20.20
2012,08,15,08,41,20.30
2012,08,15,08,42,20.40
2012,08,15,08,43,20.50
2012,08,15,08,44,20.60
2012,08,15,08,45,20.70
2012,08,15,08,46,20.80
2012,08,15,08,47,20.90
2012,08,15,08,48,21.00
2012,08,15,08,49,21.20
2012,08,15,08,50,21.30
2012,08,15,08,51,21.40
2012,08,15,08,52,21.50
2012,08,15,08,53,21.50
2012,08,15,08,54,21.60
2012,08,15,08,55,21.60
2012,08,15,08,56,21.70
2012,08,15,08,57,21.70
2012,08,15,08,58,21.80
2012,08,15,08,59,21.80
2012,08,15,09,00,21.90
2012,08,15,09,01,22.00
2012,08,15,09,02,22.00
2012,08,15,09,03,22.10
2012,08,15,09,04,22.20
2012,08,15,09,05,22.30
2012,08,15,09,06,22.30
2012,08,15,09,07,22.40
2012,08,15,09,08,22.40
2012,08,15,09,09,22.50
2012,08,15,09,10,22.50
2012,08,15,09,11,22.60
2012,08,15,09,12,22.70
2012,08,15,09,13,22.80
2012,08,15,09,14,22.90
2012,08,15,09,15,23.00
2012,08,15,09,16,23.10
2012,08,15,09,17,23.30
2012,08,15,09,18,23.50
2012,08,15,09,19,23.60
2012,08,15,09,20,23.70
2012,08,15,09,21,23.90
2012,08,15,09,22,24.00
2012,08,15,09,23,24.10
2012,08,15,09,24,24.20
2012,08,15,09,25,24.40
2012,08,15,09,26,24.50
2012,08,15,09,27,24.60
2012,08,15,09,28,24.80
2012,08,15,09,29,24.90
2012,08,15,09,30,25.00
2012,08,15,09,31,25.20
2012,08,15,09,32,25.30
2012,08,15,09,33,25.50
2012,08,15,09,34,25.60
2012,08,15,09,35,25.70
2012,08,15,09,36,25.80
2012,08,15,09,37,25.90
2012,08,15,09,38,26.00
2012,08,15,09,39,26.10
2012,08,15,09,40,26.10
2012,08,15,09,41,26.10
2012,08,15,09,42,26.20
2012,08,15,09,43,26.20
2012,08,15,09,44,26.20
2012,08,15,09,45,26.30
2012,08,15,09,46,26.30
2012,08,15,09,47,26.20
2012,08,15,09,48,26.20
2012,08,15,09,49,26.20
2012,08,15,09,50,26.20
2012,08,15,09,51,26.20
2012,08,15,09,52,26.20
2012,08,15,09,53,26.20
2012,08,15,09,54,26.20
2012,08,15,09,55,26.30
2012,08,15,09,56,26.30
2012,08,15,09,57,26.30
2012,08,15,09,58,26.30
2012,08,15,09,59,26.30
2012,08,15,10,00,26.30
2012,08,15,10,01,26.30
2012,08,15,10,02,26.30
2012,08,15,10,03,26.30
2012,08,15,10,04,26.30
2012,08,15,10,05,26.30
2012,08,15,10,06,26.30
2012,08,15,10,07,26.30
2012,08,15,10,08,26.30
2012,08,15,10,09,26.30
2012,08,15,10,10,26.30
2012,08,15,10,11,26.30
2012,08,15,10,12,26.30
2012,08,15,10,13,26.30
2012,08,15,10,14,26.30
2012,08,15,10,15,26.40
2012,08,15,10,16,26.50
2012,08,15,10,17,26.60
2012,08,15,10,18,26.70
2012,08,15,10,19,26.70
2012,08,15,10,20,26.90
2012,08,15,10,21,27.00
2012,08,15,10,22,27.10
2012,08,15,10,23,27.20
2012,08,15,10,24,27.30
2012,08,15,10,25,27.40
2012,08,15,10,26,27.40
2012,08,15,10,27,27.40
2012,08,15,10,28,27.40
2012,08,15,10,29,27.30
2012,08,15,10,30,27.30
2012,08,15,10,31,27.30
2012,08,15,10,32,27.20
2012,08,15,10,33,27.20
2012,08,15,10,34,27.30
2012,08,15,10,35,27.20
2012,08,15,10,36,27.20
2012,08,15,10,37,27.20
2012,08,15,10,38,27.30
2012,08,15,10,39,27.40
2012,08,15,10,40,27.40
2012,08,15,10,41,27.50
2012,08,15,10,42,27.60
2012,08,15,10,43,27.60
2012,08,15,10,44,27.70
2012,08,15,10,45,27.70
2012,08,15,10,46,27.80
2012,08,15,10,47,27.70
2012,08,15,10,48,27.60
2012,08,15,10,49,27.50
2012,08,15,10,50,27.50
2012,08,15,10,51,27.50
2012,08,15,10,52,27.40
2012,08,15,10,53,27.40
2012,08,15,10,54,27.50
2012,08,15,10,55,27.60
2012,08,15,10,56,27.70
2012,08,15,10,57,27.70
2012,08,15,10,58,27.80
2012,08,15,10,59,27.80
2012,08,15,11,00,27.80
2012,08,15,11,01,27.70
2012,08,15,11,02,27.70
2012,08,15,11,03,27.70
2012,08,15,11,04,27.70
2012,08,15,11,05,27.60
2012,08,15,11,06,27.60
2012,08,15,11,07,27.60
2012,08,15,11,08,27.70
2012,08,15,11,09,27.70
2012,08,15,11,10,27.70
2012,08,15,11,11,27.80
2012,08,15,11,12,27.80
2012,08,15,11,13,27.90
2012,08,15,11,14,28.00
2012,08,15,11,15,28.10
2012,08,15,11,16,28.20
2012,08,15,11,17,28.30
2012,08,15,11,18,28.50
2012,08,15,11,19,28.50
2012,08,15,11,20,28.60
2012,08,15,11,21,28.60
2012,08,15,11,22,28.60
2012,08,15,11,23,28.70
2012,08,15,11,24,28.70
2012,08,15,11,25,28.80
2012,08,15,11,26,28.80
2012,08,15,11,27,28.90
2012,08,15,11,28,28.90
2012,08,15,11,29,28.90
2012,08,15,11,30,28.80
2012,08,15,11,31,28.80
2012,08,15,11,32,28.80
2012,08,15,11,33,28.70
2012,08,15,11,34,28.70
2012,08,15,11,35,28.70
2012,08,15,11,36,28.60
2012,08,15,11,37,28.60
2012,08,15,11,38,28.50
2012,08,15,11,39,28.50
2012,08,15,11,40,28.50
2012,08,15,11,41,28.60
2012,08,15,11,42,28.70
2012,08,15,11,43,28.90
2012,08,15,11,44,28.90
2012,08,15,11,45,28.90
2012,08,15,11,46,28.90
2012,08,15,11,47,28.90
2012,08,15,11,48,28.80
2012,08,15,11,49,28.70
2012,08,15,11,50,28.70
2012,08,15,11,51,28.70
2012,08,15,11,52,28.70
2012,08,15,11,53,28.80
2012,08,15,11,54,28.90
2012,08,15,11,55,29.00
2012,08,15,11,56,29.10
2012,08,15,11,57,29.10
2012,08,15,11,58,29.00
2012,08,15,11,59,28.90
2012,08,15,12,00,28.90
2012,08,15,12,01,28.90
2012,08,15,12,02,28.80
2012,08,15,12,03,28.80
2012,08,15,12,04,28.70
2012,08,15,12,05,28.60
2012,08,15,12,06,28.60
2012,08,15,12,07,28.50
2012,08,15,12,08,28.50
2012,08,15,12,09,28.40
2012,08,15,12,10,28.30
2012,08,15,12,11,28.30
2012,08,15,12,12,28.20
2012,08,15,12,13,28.20
2012,08,15,12,14,28.20
2012,08,15,12,15,28.20
2012,08,15,12,16,28.20
2012,08,15,12,17,28.20
2012,08,15,12,18,28.20
2012,08,15,12,19,28.20
2012,08,15,12,20,28.30
2012,08,15,12,21,28.30
2012,08,15,12,22,28.50
2012,08,15,12,23,28.60
2012,08,15,12,24,28.60
2012,08,15,12,25,28.70
2012,08,15,12,26,28.70
2012,08,15,12,27,28.80
2012,08,15,12,28,28.80
2012,08,15,12,29,28.80
2012,08,15,12,30,28.90
2012,08,15,12,31,29.00
2012,08,15,12,32,29.00
2012,08,15,12,33,29.00
2012,08,15,12,34,28.90
2012,08,15,12,35,28.80
2012,08,15,12,36,28.80
2012,08,15,12,37,28.80
2012,08,15,12,38,28.80
2012,08,15,12,39,28.80
2012,08,15,12,40,28.90
2012,08,15,12,41,29.00
2012,08,15,12,42,29.10
2012,08,15,12,43,29.10
2012,08,15,12,44,29.20
2012,08,15,12,45,29.20
2012,08,15,12,46,29.10
2012,08,15,12,47,29.10
2012,08,15,12,48,29.00
2012,08,15,12,49,28.90
2012,08,15,12,50,28.80
2012,08,15,12,51,28.70
2012,08,15,12,52,28.70
2012,08,15,12,53,28.70
2012,08,15,12,54,28.80
2012,08,15,12,55,28.70
2012,08,15,12,56,28.70
2012,08,15,12,57,28.60
2012,08,15,12,58,28.60
2012,08,15,12,59,28.70
2012,08,15,13,00,28.80
2012,08,15,13,01,28.80
2012,08,15,13,02,28.80
2012,08,15,13,03,28.80
2012,08,15,13,04,28.80
2012,08,15,13,05,28.80
2012,08,15,13,06,28.80
2012,08,15,13,07,28.90
2012,08,15,13,08,28.90
2012,08,15,13,09,28.80
2012,08,15,13,10,28.80
2012,08,15,13,11,28.80
2012,08,15,13,12,28.80
2012,08,15,13,13,28.90
2012,08,15,13,14,28.90
2012,08,15,13,15,28.90
2012,08,15,13,16,28.90
2012,08,15,13,17,28.90
2012,08,15,13,18,28.90
2012,08,15,13,19,29.00
2012,08,15,13,20,29.00
2012,08,15,13,21,29.10
2012,08,15,13,22,29.10
2012,08,15,13,23,29.10
2012,08,15,13,24,29.00
2012,08,15,13,25,29.00
2012,08,15,13,26,29.10
2012,08,15,13,27,29.20
2012,08,15,13,28,29.30
2012,08,15,13,29,29.40
2012,08,15,13,30,29.50
2012,08,15,13,31,29.60
2012,08,15,13,32,29.60
2012,08,15,13,33,29.70
2012,08,15,13,34,29.70
2012,08,15,13,35,29.70
2012,08,15,13,36,29.60
2012,08,15,13,37,29.60
2012,08,15,13,38,29.60
2012,08,15,13,39,29.60
2012,08,15,13,40,29.60
2012,08,15,13,41,29.60
2012,08,15,13,42,29.60
2012,08,15,13,43,29.70
2012,08,15,13,44,29.70
2012,08,15,13,45,29.70
2012,08,15,13,46,29.70
2012,08,15,13,47,29.70
2012,08,15,13,48,29.70
2012,08,15,13,49,29.70
2012,08,15,13,50,29.70
2012,08,15,13,51,29.70
2012,08,15,13,52,29.70
2012,08,15,13,53,29.70
2012,08,15,13,54,29.60
2012,08,15,13,55,29.60
2012,08,15,13,56,29.60
2012,08,15,13,57,29.50
2012,08,15,13,58,29.60
2012,08,15,13,59,29.50
2012,08,15,14,00,29.50
2012,08,15,14,01,29.60
2012,08,15,14,02,29.60
2012,08,15,14,03,29.60
2012,08,15,14,04,29.60
2012,08,15,14,05,29.50
2012,08,15,14,06,29.50
2012,08,15,14,07,29.60
2012,08,15,14,08,29.70
2012,08,15,14,09,29.70
2012,08,15,14,10,29.70
2012,08,15,14,11,29.70
2012,08,15,14,12,29.70
2012,08,15,14,13,29.70
2012,08,15,14,14,29.90
2012,08,15,14,15,30.00
2012,08,15,14,16,30.20
2012,08,15,14,17,30.30
2012,08,15,14,18,30.30
2012,08,15,14,19,30.30
2012,08,15,14,20,30.30
2012,08,15,14,21,30.30
2012,08,15,14,22,30.40
2012,08,15,14,23,30.50
2012,08,15,14,24,30.60
2012,08,15,14,25,30.80
2012,08,15,14,26,30.90
2012,08,15,14,27,30.90
2012,08,15,14,28,30.90
2012,08,15,14,29,30.90
2012,08,15,14,30,30.90
2012,08,15,14,31,30.90
2012,08,15,14,32,30.80
2012,08,15,14,33,30.80
2012,08,15,14,34,30.80
2012,08,15,14,35,30.80
2012,08,15,14,36,30.70
2012,08,15,14,37,30.70
2012,08,15,14,38,30.60
2012,08,15,14,39,30.60
2012,08,15,14,40,30.60
2012,08,15,14,41,30.60
2012,08,15,14,42,30.50
2012,08,15,14,43,30.40
2012,08,15,14,44,30.40
2012,08,15,14,45,30.40
2012,08,15,14,46,30.40
2012,08,15,14,47,30.50
2012,08,15,14,48,30.50
2012,08,15,14,49,30.50
2012,08,15,14,50,30.40
2012,08,15,14,51,30.40
2012,08,15,14,52,30.40
2012,08,15,14,53,30.40
2012,08,15,14,54,30.50
2012,08,15,14,55,30.50
2012,08,15,14,56,30.60
2012,08,15,14,57,30.60
2012,08,15,14,58,30.70
2012,08,15,14,59,30.80
2012,08,15,15,00,30.80
2012,08,15,15,01,30.90
2012,08,15,15,02,30.90
2012,08,15,15,03,30.80
2012,08,15,15,04,30.80
2012,08,15,15,05,30.70
2012,08,15,15,06,30.60
2012,08,15,15,07,30.60
2012,08,15,15,08,30.70
2012,08,15,15,09,30.70
2012,08,15,15,10,30.80
2012,08,15,15,11,30.80
2012,08,15,15,12,30.80
2012,08,15,15,13,30.80
2012,08,15,15,14,30.80
2012,08,15,15,15,30.80
2012,08,15,15,16,30.80
2012,08,15,15,17,30.70
2012,08,15,15,18,30.70
2012,08,15,15,19,30.60
2012,08,15,15,20,30.60
2012,08,15,15,21,30.60
2012,08,15,15,22,30.60
2012,08,15,15,23,30.50
2012,08,15,15,24,30.50
2012,08,15,15,25,30.60
2012,08,15,15,26,30.60
2012,08,15,15,27,30.70
2012,08,15,15,28,30.70
2012,08,15,15,29,30.80
2012,08,15,15,30,30.80
2012,08,15,15,31,30.70
2012,08,15,15,32,30.70
2012,08,15,15,33,30.70
2012,08,15,15,34,30.70
2012,08,15,15,35,30.70
2012,08,15,15,36,30.70
2012,08,15,15,37,30.70
2012,08,15,15,38,30.70
2012,08,15,15,39,30.70
2012,08,15,15,40,30.70
2012,08,15,15,41,30.70
2012,08,15,15,42,30.70
2012,08,15,15,43,30.70
2012,08,15,15,44,30.80
2012,08,15,15,45,30.80
2012,08,15,15,46,30.80
2012,08,15,15,47,30.90
2012,08,15,15,48,30.90
2012,08,15,15,49,31.00
2012,08,15,15,50,31.00
2012,08,15,15,51,30.90
2012,08,15,15,52,30.80
2012,08,15,15,53,30.80
2012,08,15,15,54,30.80
2012,08,15,15,55,30.80
2012,08,15,15,56,30.80
2012,08,15,15,57,30.80
2012,08,15,15,58,30.80
2012,08,15,15,59,30.80
2012,08,15,16,00,30.80
2012,08,15,16,01,30.80
2012,08,15,16,02,30.90
2012,08,15,16,03,30.90
2012,08,15,16,04,30.90
2012,08,15,16,05,31.00
2012,08,15,16,06,31.00
2012,08,15,16,07,31.10
2012,08,15,16,08,31.10
2012,08,15,16,09,31.20
2012,08,15,16,10,31.20
2012,08,15,16,11,31.10
2012,08,15,16,12,31.10
2012,08,15,16,13,31.00
2012,08,15,16,14,31.00
2012,08,15,16,15,31.00
2012,08,15,16,16,30.90
2012,08,15,16,17,30.90
2012,08,15,16,18,30.90
2012,08,15,16,19,30.80
2012,08,15,16,20,30.80
2012,08,15,16,21,30.80
2012,08,15,16,22,30.90
2012,08,15,16,23,30.90
2012,08,15,16,24,30.90
2012,08,15,16,25,30.90
2012,08,15,16,26,30.90
2012,08,15,16,27,30.90
2012,08,15,16,28,30.90
2012,08,15,16,29,30.90
2012,08,15,16,30,30.90
2012,08,15,16,31,30.90
2012,08,15,16,32,30.90
2012,08,15,16,33,31.00
2012,08,15,16,34,31.00
2012,08,15,16,35,31.00
2012,08,15,16,36,31.10
2012,08,15,16,37,31.10
2012,08,15,16,38,31.10
2012,08,15,16,39,31.10
2012,08,15,16,40,31.10
2012,08,15,16,41,31.20
2012,08,15,16,42,31.10
2012,08,15,16,43,31.10
2012,08,15,16,44,31.10
2012,08,15,16,45,31.10
2012,08,15,16,46,31.00
2012,08,15,16,47,31.00
2012,08,15,16,48,31.00
2012,08,15,16,49,30.90
2012,08,15,16,50,30.90
2012,08,15,16,51,30.90
2012,08,15,16,52,30.90
2012,08,15,16,53,30.90
2012,08,15,16,54,30.90
2012,08,15,16,55,30.90
2012,08,15,16,56,30.90
2012,08,15,16,57,30.90
2012,08,15,16,58,30.80
2012,08,15,16,59,30.80
2012,08,15,17,00,30.80
2012,08,15,17,01,30.80
2012,08,15,17,02,30.80
2012,08,15,17,03,30.70
2012,08,15,17,04,30.70
2012,08,15,17,05,30.70
2012,08,15,17,06,30.70
2012,08,15,17,07,30.70
2012,08,15,17,08,30.70
2012,08,15,17,09,30.70
2012,08,15,17,10,30.70
2012,08,15,17,11,30.80
2012,08,15,17,12,30.80
2012,08,15,17,13,30.80
2012,08,15,17,14,30.70
2012,08,15,17,15,30.70
2012,08,15,17,16,30.70
2012,08,15,17,17,30.70
2012,08,15,17,18,30.70
2012,08,15,17,19,30.60
2012,08,15,17,20,30.70
2012,08,15,17,21,30.70
2012,08,15,17,22,30.70
2012,08,15,17,23,30.70
2012,08,15,17,24,30.70
2012,08,15,17,25,30.70
2012,08,15,17,26,30.70
2012,08,15,17,27,30.70
2012,08,15,17,28,30.70
2012,08,15,17,29,30.70
2012,08,15,17,30,30.70
2012,08,15,17,31,30.60
2012,08,15,17,32,30.70
2012,08,15,17,33,30.70
2012,08,15,17,34,30.70
2012,08,15,17,35,30.80
2012,08,15,17,36,30.80
2012,08,15,17,37,30.90
2012,08,15,17,38,30.90
2012,08,15,17,39,30.90
2012,08,15,17,40,31.00
2012,08,15,17,41,30.90
2012,08,15,17,42,30.90
2012,08,15,17,43,30.90
2012,08,15,17,44,30.90
2012,08,15,17,45,30.90
2012,08,15,17,46,30.90
2012,08,15,17,47,30.90
2012,08,15,17,48,31.00
2012,08,15,17,49,31.10
2012,08,15,17,50,31.20
2012,08,15,17,51,31.20
2012,08,15,17,52,31.20
2012,08,15,17,53,31.30
2012,08,15,17,54,31.30
2012,08,15,17,55,31.30
2012,08,15,17,56,31.30
2012,08,15,17,57,31.40
2012,08,15,17,58,31.40
2012,08,15,17,59,31.30
2012,08,15,18,00,31.30
2012,08,15,18,01,31.30
2012,08,15,18,02,31.20
2012,08,15,18,03,31.10
2012,08,15,18,04,31.10
2012,08,15,18,05,31.00
2012,08,15,18,06,30.90
2012,08,15,18,07,30.90
2012,08,15,18,08,30.80
2012,08,15,18,09,30.70
2012,08,15,18,10,30.60
2012,08,15,18,11,30.60
2012,08,15,18,12,30.50
2012,08,15,18,13,30.40
2012,08,15,18,14,30.30
2012,08,15,18,15,30.30
2012,08,15,18,16,30.20
2012,08,15,18,17,30.20
2012,08,15,18,18,30.20
2012,08,15,18,19,30.20
2012,08,15,18,20,30.10
2012,08,15,18,21,30.10
2012,08,15,18,22,30.10
2012,08,15,18,23,30.10
2012,08,15,18,24,30.20
2012,08,15,18,25,30.20
2012,08,15,18,26,30.20
2012,08,15,18,27,30.20
2012,08,15,18,28,30.20
2012,08,15,18,29,30.10
2012,08,15,18,30,30.10
2012,08,15,18,31,30.10
2012,08,15,18,32,30.00
2012,08,15,18,33,30.00
2012,08,15,18,34,30.00
2012,08,15,18,35,29.90
2012,08,15,18,36,29.90
2012,08,15,18,37,29.90
2012,08,15,18,38,29.90
2012,08,15,18,39,29.80
2012,08,15,18,40,29.80
2012,08,15,18,41,29.80
2012,08,15,18,42,29.80
2012,08,15,18,43,29.80
2012,08,15,18,44,29.80
2012,08,15,18,45,29.80
2012,08,15,18,46,29.80
2012,08,15,18,47,29.80
2012,08,15,18,48,29.80
2012,08,15,18,49,29.80
2012,08,15,18,50,29.80
2012,08,15,18,51,29.80
2012,08,15,18,52,29.80
2012,08,15,18,53,29.70
2012,08,15,18,54,29.70
2012,08,15,18,55,29.70
2012,08,15,18,56,29.70
2012,08,15,18,57,29.70
2012,08,15,18,58,29.70
2012,08,15,18,59,29.70
2012,08,15,19,00,29.70
2012,08,15,19,01,29.70
2012,08,15,19,02,29.70
2012,08,15,19,03,29.70
2012,08,15,19,04,29.60
2012,08,15,19,05,29.60
2012,08,15,19,06,29.50
2012,08,15,19,07,29.50
2012,08,15,19,08,29.40
2012,08,15,19,09,29.40
2012,08,15,19,10,29.30
2012,08,15,19,11,29.30
2012,08,15,19,12,29.20
2012,08,15,19,13,29.20
2012,08,15,19,14,29.20
2012,08,15,19,15,29.20
2012,08,15,19,16,29.20
2012,08,15,19,17,29.20
2012,08,15,19,18,29.20
2012,08,15,19,19,29.20
2012,08,15,19,20,29.30
2012,08,15,19,21,29.30
2012,08,15,19,22,29.40
2012,08,15,19,23,29.40
2012,08,15,19,24,29.50
2012,08,15,19,25,29.50
2012,08,15,19,26,29.40
2012,08,15,19,27,29.40
2012,08,15,19,28,29.20
2012,08,15,19,29,29.10
2012,08,15,19,30,28.90
2012,08,15,19,31,28.80
2012,08,15,19,32,28.70
2012,08,15,19,33,28.50
2012,08,15,19,34,28.30
2012,08,15,19,35,28.20
2012,08,15,19,36,28.10
2012,08,15,19,37,28.00
2012,08,15,19,38,27.80
2012,08,15,19,39,27.70
2012,08,15,19,40,27.50
2012,08,15,19,41,27.40
2012,08,15,19,42,27.20
2012,08,15,19,43,27.10
2012,08,15,19,44,27.00
2012,08,15,19,45,26.90
2012,08,15,19,46,26.80
2012,08,15,19,47,26.70
2012,08,15,19,48,26.60
2012,08,15,19,49,26.50
2012,08,15,19,50,26.40
2012,08,15,19,51,26.30
2012,08,15,19,52,26.20
2012,08,15,19,53,26.10
2012,08,15,19,54,26.00
2012,08,15,19,55,25.90
2012,08,15,19,56,25.80
2012,08,15,19,57,25.80
2012,08,15,19,58,25.70
2012,08,15,19,59,25.70
2012,08,15,20,00,25.60
2012,08,15,20,01,25.60
2012,08,15,20,02,25.60
2012,08,15,20,03,25.50
2012,08,15,20,04,25.50
2012,08,15,20,05,25.40
2012,08,15,20,06,25.40
2012,08,15,20,07,25.30
2012,08,15,20,08,25.30
2012,08,15,20,09,25.30
2012,08,15,20,10,25.20
2012,08,15,20,11,25.20
2012,08,15,20,12,25.20
2012,08,15,20,13,25.10
2012,08,15,20,14,25.10
2012,08,15,20,15,25.10
2012,08,15,20,16,25.10
2012,08,15,20,17,25.00
2012,08,15,20,18,25.00
2012,08,15,20,19,24.90
2012,08,15,20,20,24.90
2012,08,15,20,21,24.90
2012,08,15,20,22,24.90
2012,08,15,20,23,24.80
2012,08,15,20,24,24.80
2012,08,15,20,25,24.80
2012,08,15,20,26,24.70
2012,08,15,20,27,24.70
2012,08,15,20,28,24.60
2012,08,15,20,29,24.60
2012,08,15,20,30,24.60
2012,08,15,20,31,24.50
2012,08,15,20,32,24.50
2012,08,15,20,33,24.50
2012,08,15,20,34,24.50
2012,08,15,20,35,24.40
2012,08,15,20,36,24.40
2012,08,15,20,37,24.40
2012,08,15,20,38,24.40
2012,08,15,20,39,24.40
2012,08,15,20,40,24.30
2012,08,15,20,41,24.30
2012,08,15,20,42,24.30
2012,08,15,20,43,24.20
2012,08,15,20,44,24.20
2012,08,15,20,45,24.10
2012,08,15,20,46,24.10
2012,08,15,20,47,24.10
2012,08,15,20,48,24.00
2012,08,15,20,49,24.00
2012,08,15,20,50,24.00
2012,08,15,20,51,23.90
2012,08,15,20,52,23.90
2012,08,15,20,53,23.80
2012,08,15,20,54,23.80
2012,08,15,20,55,23.80
2012,08,15,20,56,23.80
2012,08,15,20,57,23.80
2012,08,15,20,58,23.80
2012,08,15,20,59,23.80
2012,08,15,21,00,23.70
2012,08,15,21,01,23.80
2012,08,15,21,02,23.70
2012,08,15,21,03,23.70
2012,08,15,21,04,23.70
2012,08,15,21,05,23.70
2012,08,15,21,06,23.60
2012,08,15,21,07,23.60
2012,08,15,21,08,23.60
2012,08,15,21,09,23.60
2012,08,15,21,10,23.60
2012,08,15,21,11,23.50
2012,08,15,21,12,23.40
2012,08,15,21,13,23.40
2012,08,15,21,14,23.40
2012,08,15,21,15,23.40
2012,08,15,21,16,23.40
2012,08,15,21,17,23.30
2012,08,15,21,18,23.30
2012,08,15,21,19,23.30
2012,08,15,21,20,23.30
2012,08,15,21,21,23.30
2012,08,15,21,22,23.20
2012,08,15,21,23,23.10
2012,08,15,21,24,23.00
2012,08,15,21,25,22.80
2012,08,15,21,26,22.70
2012,08,15,21,27,22.60
2012,08,15,21,28,22.50
2012,08,15,21,29,22.40
2012,08,15,21,30,22.40
2012,08,15,21,31,22.40
2012,08,15,21,32,22.30
2012,08,15,21,33,22.30
2012,08,15,21,34,22.30
2012,08,15,21,35,22.30
2012,08,15,21,36,22.30
2012,08,15,21,37,22.20
2012,08,15,21,38,22.20
2012,08,15,21,39,22.20
2012,08,15,21,40,22.10
2012,08,15,21,41,22.10
2012,08,15,21,42,22.10
2012,08,15,21,43,22.00
2012,08,15,21,44,22.00
2012,08,15,21,45,21.90
2012,08,15,21,46,21.80
2012,08,15,21,47,21.70
2012,08,15,21,48,21.60
2012,08,15,21,49,21.60
2012,08,15,21,50,21.50
2012,08,15,21,51,21.40
2012,08,15,21,52,21.40
2012,08,15,21,53,21.30
2012,08,15,21,54,21.30
2012,08,15,21,55,21.30
2012,08,15,21,56,21.30
2012,08,15,21,57,21.30
2012,08,15,21,58,21.30
2012,08,15,21,59,21.30
2012,08,15,22,00,21.30
2012,08,15,22,01,21.30
2012,08,15,22,02,21.30
2012,08,15,22,03,21.30
2012,08,15,22,04,21.30
2012,08,15,22,05,21.30
2012,08,15,22,06,21.30
2012,08,15,22,07,21.30
2012,08,15,22,08,21.30
2012,08,15,22,09,21.30
2012,08,15,22,10,21.30
2012,08,15,22,11,21.20
2012,08,15,22,12,21.20
2012,08,15,22,13,21.10
2012,08,15,22,14,21.00
2012,08,15,22,15,21.00
2012,08,15,22,16,20.90
2012,08,15,22,17,20.90
2012,08,15,22,18,20.80
2012,08,15,22,19,20.70
2012,08,15,22,20,20.60
2012,08,15,22,21,20.60
2012,08,15,22,22,20.50
2012,08,15,22,23,20.40
2012,08,15,22,24,20.40
2012,08,15,22,25,20.30
2012,08,15,22,26,20.30
2012,08,15,22,27,20.30
2012,08,15,22,28,20.30
2012,08,15,22,29,20.30
2012,08,15,22,30,20.30
2012,08,15,22,31,20.20
2012,08,15,22,32,20.20
2012,08,15,22,33,20.20
2012,08,15,22,34,20.10
2012,08,15,22,35,20.00
2012,08,15,22,36,19.90
2012,08,15,22,37,19.90
2012,08,15,22,38,19.80
2012,08,15,22,39,19.80
2012,08,15,22,40,19.80
2012,08,15,22,41,19.90
2012,08,15,22,42,19.90
2012,08,15,22,43,19.90
2012,08,15,22,44,19.80
2012,08,15,22,45,19.80
2012,08,15,22,46,19.70
2012,08,15,22,47,19.70
2012,08,15,22,48,19.60
2012,08,15,22,49,19.50
2012,08,15,22,50,19.40
2012,08,15,22,51,19.40
2012,08,15,22,52,19.30
2012,08,15,22,53,19.30
2012,08,15,22,54,19.30
2012,08,15,22,55,19.20
2012,08,15,22,56,19.20
2012,08,15,22,57,19.20
2012,08,15,22,58,19.30
2012,08,15,22,59,19.30
2012,08,15,23,00,19.30
2012,08,15,23,01,19.30
2012,08,15,23,02,19.30
2012,08,15,23,03,19.30
2012,08,15,23,04,19.30
2012,08,15,23,05,19.20
2012,08,15,23,06,19.20
2012,08,15,23,07,19.10
2012,08,15,23,08,19.00
2012,08,15,23,09,18.90
2012,08,15,23,10,18.80
2012,08,15,23,11,18.80
2012,08,15,23,12,18.70
2012,08,15,23,13,18.70
2012,08,15,23,14,18.70
2012,08,15,23,15,18.60
2012,08,15,23,16,18.60
2012,08,15,23,17,18.60
2012,08,15,23,18,18.60
2012,08,15,23,19,18.60
2012,08,15,23,20,18.60
2012,08,15,23,21,18.70
2012,08,15,23,22,18.80
2012,08,15,23,23,18.80
2012,08,15,23,24,18.80
2012,08,15,23,25,18.80
2012,08,15,23,26,18.70
2012,08,15,23,27,18.70
2012,08,15,23,28,18.60
2012,08,15,23,29,18.60
2012,08,15,23,30,18.50
2012,08,15,23,31,18.40
2012,08,15,23,32,18.40
2012,08,15,23,33,18.30
2012,08,15,23,34,18.30
2012,08,15,23,35,18.30
2012,08,15,23,36,18.30
2012,08,15,23,37,18.40
2012,08,15,23,38,18.40
2012,08,15,23,39,18.40
2012,08,15,23,40,18.40
2012,08,15,23,41,18.50
2012,08,15,23,42,18.50
2012,08,15,23,43,18.50
2012,08,15,23,44,18.50
2012,08,15,23,45,18.40
2012,08,15,23,46,18.40
2012,08,15,23,47,18.40
2012,08,15,23,48,18.30
2012,08,15,23,49,18.30
2012,08,15,23,50,18.20
2012,08,15,23,51,18.20
2012,08,15,23,52,18.10
2012,08,15,23,53,18.00
2012,08,15,23,54,18.00
2012,08,15,23,55,17.90
2012,08,15,23,56,17.90
2012,08,15,23,57,17.80
2012,08,15,23,58,17.80
2012,08,15,23,59,17.80
